"2010-11-05 00:00:00",308461,2.986,216.2,6.515,1.23,13.39,104.1159,9.81,10.81,21.58,0,110.2,13.35,10.60,178.2
"2010-11-05 00:00:30",308462,1.094,205.3,1.019,0,9.91,104.1186,9.82,10.64,21.5,0,110.1,13.38,10.60,167.3
"2010-11-05 00:01:00",308463,2.086,209,6.185,1.275,11.6,104.1144,9.81,10.71,21.9,0,110.1,13.35,10.59,171.0
"2010-11-05 00:01:30",308464,1.627,208.1,5.797,0.953,10.75,104.1006,9.77,10.77,22.18,0,110.1,13.35,10.56,170.1
"2010-11-05 00:02:00",308465,1.848,210.8,5.349,1.135,10.67,104.0984,9.77,10.62,22.07,0,110.1,13.35,10.55,172.8
"2010-11-05 00:02:30",308466,1.226,208.6,0.616,0,9.65,104.0978,9.76,10.62,22,0,110.1,13.39,10.55,170.6
"2010-11-05 00:03:00",308467,2.55,214.8,5.974,1.294,11.95,104.0975,9.76,10.7,22.16,0,110.1,13.35,10.55,176.8
"2010-11-05 00:03:30",308468,2.074,214.6,6.7,1.19,11.65,104.0975,9.76,10.78,22.28,0,110.1,13.35,10.55,176.6
"2010-11-05 00:04:00",308469,1.394,210.1,0.646,0.031,9.96,104.0975,9.76,10.61,22.11,0,110.1,13.39,10.55,172.1
"2010-11-05 00:04:30",308470,1.527,210.6,2.488,0.499,10.32,104.0975,9.76,10.67,22.21,0,110.1,13.38,10.55,172.6
"2010-11-05 00:05:00",308471,3.483,219.2,6.201,1.19,13.85,104.0975,9.76,10.9,22.44,0,110.1,13.35,10.55,181.2
"2010-11-05 00:05:30",308472,2.519,214,6.359,1.336,12.32,104.0975,9.76,10.8,22.35,0,110.1,13.35,10.55,176.0
"2010-11-05 00:06:00",308473,2.524,213.4,7.754,1.306,11.76,104.0972,9.76,10.67,22.25,0,110.1,13.34,10.55,175.4
"2010-11-05 00:06:30",308474,2.416,211.3,6.484,1.263,11.63,104.0927,9.75,10.76,22.4,0,110.1,13.35,10.54,173.3
"2010-11-05 00:07:00",308475,1.401,205.2,0.757,0.034,9.27,104.0845,9.73,10.6,22.26,0,110.1,13.38,10.52,167.2
"2010-11-05 00:07:30",308476,1.399,205.6,0.91,0.027,9.29,104.0792,9.72,10.6,22.26,0,110.1,13.38,10.50,167.6
"2010-11-05 00:08:00",308477,1.419,204.9,0.642,0.034,9.56,104.0727,9.7,10.59,22.29,0,110.1,13.35,10.49,166.9
"2010-11-05 00:08:30",308478,2.604,210,6.352,1.328,11.99,104.0668,9.68,10.74,22.47,0,110.1,13.35,10.47,172.0
"2010-11-05 00:09:00",308479,1.414,204.3,0.799,0.036,9.89,104.0659,9.68,10.59,22.32,0,110.1,13.39,10.47,166.3
"2010-11-05 00:09:30",308480,2.078,207.8,5.718,1.159,10.82,104.0665,9.68,10.58,22.21,0,110.1,13.36,10.47,169.8
"2010-11-05 00:10:00",308481,2.661,212.2,6.711,1.332,12.63,104.0716,9.7,10.8,22.17,0,110.1,13.36,10.48,174.2
"2010-11-05 00:10:30",308482,2.933,211.9,7.067,1.309,12.55,104.0799,9.72,10.75,22,0,110.1,13.36,10.50,173.9
"2010-11-05 00:11:00",308483,2.256,209.1,5.695,1.16,11.2,104.0898,9.74,10.69,21.9,0,110.1,13.36,10.53,171.1
"2010-11-05 00:11:30",308484,1.55,207.3,0.485,0.034,9.18,104.0975,9.76,10.66,21.92,0,110.1,13.4,10.55,169.3
"2010-11-05 00:12:00",308485,1.624,207.3,0.305,0.035,8.97,104.0981,9.76,10.6,21.98,0,110.1,13.4,10.55,169.3
"2010-11-05 00:12:30",308486,1.628,208.1,0.527,0.035,9.16,104.1027,9.78,10.61,22.01,0,110.1,13.4,10.56,170.1
"2010-11-05 00:13:00",308487,1.764,211.5,4.167,0.671,10.14,104.1017,9.77,10.71,22.02,0,110.1,13.37,10.56,173.5
"2010-11-05 00:13:30",308488,2.738,215.1,6.131,1.302,11.24,104.0984,9.77,10.63,21.88,0,110.1,13.37,10.55,177.1
"2010-11-05 00:14:00",308489,2.302,214.4,5.24,1.081,11.38,104.0977,9.76,10.76,22.01,0,110.1,13.37,10.55,176.4
"2010-11-05 00:14:30",308490,2.812,219.5,6.997,1.323,12.27,104.0983,9.77,10.71,21.93,0,110.1,13.37,10.55,181.5
"2010-11-05 00:15:00",308491,2.579,218.2,5.981,1.293,11.88,104.0989,9.77,10.85,21.99,0,110.1,13.37,10.55,180.2
"2010-11-05 00:15:30",308492,3.392,223.4,6.512,1.269,13.49,104.0989,9.77,10.85,21.8,0,110.1,13.37,10.55,185.4
"2010-11-05 00:16:00",308493,2.178,216.7,5.545,1.048,10.57,104.0992,9.77,10.67,21.31,0,110.1,13.37,10.55,178.7
"2010-11-05 00:16:30",308494,1.657,216.2,1.314,0.03,8.87,104.1009,9.77,10.6,21.06,0,110.1,13.41,10.56,178.2
"2010-11-05 00:17:00",308495,1.742,214.5,0.824,0.045,8.82,104.1,9.77,10.6,21.21,0,110.1,13.41,10.56,176.5
"2010-11-05 00:17:30",308496,1.9,212.8,0.657,0.074,9.34,104.0989,9.77,10.63,21.45,0,110.1,13.41,10.55,174.8
"2010-11-05 00:18:00",308497,2.012,210.6,1.535,0.037,10.21,104.0989,9.77,10.72,21.89,0,110.1,13.41,10.55,172.6
"2010-11-05 00:18:30",308498,3.12,214.5,6.184,1.282,11.89,104.0989,9.77,10.65,21.88,0,110.1,13.37,10.55,176.5
"2010-11-05 00:19:00",308499,2.422,213.8,5.738,0.938,11.24,104.0981,9.76,10.74,21.9,0,110.1,13.37,10.55,175.8
"2010-11-05 00:19:30",308500,3.868,221.2,6.688,1.226,13.23,104.0899,9.74,10.74,21.63,0,110.1,13.37,10.53,183.2
"2010-11-05 00:20:00",308501,3.737,223.1,6.455,1.269,13.51,104.0825,9.73,10.84,21.69,0,110.1,13.37,10.51,185.1
"2010-11-05 00:20:30",308502,3.367,221.4,6.539,1.308,12.22,104.0786,9.71,10.68,21.52,0,110.1,13.37,10.50,183.4
"2010-11-05 00:21:00",308503,1.816,215.5,0.888,0.029,9.08,104.0814,9.72,10.58,21.21,0,110.1,13.41,10.51,177.5
"2010-11-05 00:21:30",308504,1.795,221.1,2.297,0.089,9.2,104.091,9.75,10.59,21.03,0,110.1,13.41,10.53,183.1
"2010-11-05 00:22:00",308505,1.753,221.3,1.76,0.072,9.49,104.0984,9.77,10.59,20.97,0,110.1,13.41,10.55,183.3
"2010-11-05 00:22:30",308506,1.788,220.3,0.922,0.475,10.01,104.0989,9.77,10.6,20.94,0,110.1,13.37,10.55,182.3
"2010-11-05 00:23:00",308507,2.976,222.6,6.423,1.291,12.33,104.0989,9.77,10.76,20.96,0,110.1,13.37,10.55,184.6
"2010-11-05 00:23:30",308508,2.493,222.4,6.296,1.269,12.07,104.0989,9.77,10.73,20.84,0,110.1,13.37,10.55,184.4
"2010-11-05 00:24:00",308509,3.15,224.6,6.247,1.326,13.06,104.0989,9.77,10.78,20.79,0,110.1,13.37,10.55,186.6
"2010-11-05 00:24:30",308510,3.322,228.4,7.233,1.284,13.4,104.0989,9.77,10.82,20.8,0,110.1,13.37,10.55,190.4
"2010-11-05 00:25:00",308511,2.182,222.6,4.89,1.069,10.52,104.0989,9.77,10.66,20.65,0,110.1,13.37,10.55,184.6
"2010-11-05 00:25:30",308512,2.864,227.2,6.499,1.324,11.75,104.0989,9.77,10.76,20.74,0,110.1,13.37,10.55,189.2
"2010-11-05 00:26:00",308513,1.675,223.2,0.578,0.035,9.29,104.1007,9.77,10.62,20.64,0,110.1,13.41,10.56,185.2
"2010-11-05 00:26:30",308514,1.731,225.4,1.183,0.035,9.3,104.1021,9.78,10.61,20.73,0,110.1,13.41,10.56,187.4
"2010-11-05 00:27:00",308515,1.752,225.1,0.79,0.035,9.64,104.0991,9.77,10.63,20.74,0,110.1,13.42,10.55,187.1
"2010-11-05 00:27:30",308516,1.83,226.4,2.793,0.242,10.42,104.0999,9.77,10.72,20.81,0,110.1,13.38,10.56,188.4
"2010-11-05 00:28:00",308517,3.084,232.7,6.816,1.269,12.32,104.0944,9.76,10.68,20.67,0,110.1,13.39,10.54,194.7
"2010-11-05 00:28:30",308518,3.322,232.8,6.718,1.374,12.6,104.0933,9.75,10.79,20.81,0,110.1,13.39,10.54,194.8
"2010-11-05 00:29:00",308519,3.777,236.3,6.278,1.262,13.68,104.0863,9.73,10.87,21.12,0,110.1,13.39,10.52,198.3
"2010-11-05 00:29:30",308520,2.793,232.8,6.717,1.212,11.62,104.0856,9.73,10.78,21.42,0,110,13.38,10.52,194.8
"2010-11-05 00:30:00",308521,2.565,232.9,5.295,1.113,10.4,104.0912,9.75,10.64,21.48,0,110.1,13.39,10.53,194.9
"2010-11-05 00:30:30",308522,1.879,232.4,2.475,0.026,9.69,104.0927,9.75,10.71,21.66,0,110.1,13.42,10.54,194.4
"2010-11-05 00:31:00",308523,1.861,232.1,0.374,0.004,9.24,104.0944,9.76,10.6,21.6,0,110,13.42,10.54,194.1
"2010-11-05 00:31:30",308524,1.855,231,0.82,0.012,9.57,104.0991,9.77,10.59,21.48,0,110,13.42,10.55,193.0
"2010-11-05 00:32:00",308525,2.6,235.9,7.306,1.217,11.96,104.0985,9.77,10.76,21.61,0,110,13.39,10.55,197.9
"2010-11-05 00:32:30",308526,2.065,235.4,3.125,0.797,10.38,104.1003,9.77,10.67,21.51,0,110,13.39,10.56,197.4
"2010-11-05 00:33:00",308527,3.689,245.1,6.545,1.187,13.61,104.1,9.77,10.75,21.64,0,110.1,13.39,10.56,207.1
"2010-11-05 00:33:30",308528,3.397,245.3,6.787,1.263,13.31,104.1003,9.77,10.79,21.74,0,110,13.39,10.56,207.3
"2010-11-05 00:34:00",308529,1.813,237.4,0.573,0.477,9.67,104.1003,9.77,10.62,21.63,0,110,13.39,10.56,199.4
"2010-11-05 00:34:30",308530,1.961,237.6,4.365,0.79,9.97,104.1003,9.77,10.76,21.65,0,110,13.39,10.56,199.6
"2010-11-05 00:35:00",308531,2.593,239.1,6.245,1.261,10.45,104.1003,9.77,10.62,21.48,0,110.1,13.39,10.56,201.1
"2010-11-05 00:35:30",308532,1.642,233.3,0.659,0,8.91,104.1003,9.77,10.61,21.43,0,110.1,13.42,10.56,195.3
"2010-11-05 00:36:00",308533,1.635,232,0.279,0.023,9.15,104.1003,9.77,10.6,21.21,0,110.1,13.42,10.56,194.0
"2010-11-05 00:36:30",308534,2.185,233.8,5.522,1.124,10.42,104.1003,9.77,10.61,21.03,0,110,13.39,10.56,195.8
"2010-11-05 00:37:00",308535,1.932,232.3,5.036,0.908,11.2,104.1003,9.77,10.77,21.06,0,110.1,13.39,10.56,194.3
"2010-11-05 00:37:30",308536,3.782,239.7,6.21,1,13.36,104.1003,9.77,10.7,21,0,110,13.39,10.56,201.7
"2010-11-05 00:38:00",308537,2.851,237.4,6.977,1.307,12.46,104.1003,9.77,10.78,21.34,0,110.1,13.39,10.56,199.4
"2010-11-05 00:38:30",308538,2.284,235.9,5.88,1.075,11.31,104.1003,9.77,10.79,21.55,0,110.1,13.39,10.56,197.9
"2010-11-05 00:39:00",308539,1.791,233.9,2.493,0.025,9.56,104.1003,9.77,10.63,21.35,0,110,13.42,10.56,195.9
"2010-11-05 00:39:30",308540,2.923,241.2,6.524,1.302,11.41,104.1003,9.77,10.77,21.44,0,110,13.39,10.56,203.2
"2010-11-05 00:40:00",308541,1.693,235.1,0.431,0.036,9.13,104.1003,9.77,10.62,21.16,0,110.1,13.42,10.56,197.1
"2010-11-05 00:40:30",308542,1.65,237.1,0.807,0.019,9.21,104.1003,9.77,10.62,21.15,0,110.1,13.42,10.56,199.1
"2010-11-05 00:41:00",308543,1.59,236.9,0.797,0.025,9.56,104.1003,9.77,10.61,21.21,0,110,13.42,10.56,198.9
"2010-11-05 00:41:30",308544,2.794,241.9,6.876,1.294,12.1,104.1003,9.77,10.73,21.32,0,110,13.39,10.56,203.9
"2010-11-05 00:42:00",308545,2.351,239.3,5.802,1.191,11.33,104.1003,9.77,10.73,21.33,0,110,13.39,10.56,201.3
"2010-11-05 00:42:30",308546,2.713,240,6.733,1.313,12.11,104.1003,9.77,10.74,21.3,0,110,13.39,10.56,202.0
"2010-11-05 00:43:00",308547,2.06,235.3,5.341,1.028,10.65,104.1003,9.77,10.74,21.2,0,110,13.4,10.56,197.3
"2010-11-05 00:43:30",308548,2.577,236.4,6.737,1.306,11.39,104.1003,9.77,10.7,21,0,110,13.4,10.56,198.4
"2010-11-05 00:44:00",308549,2.822,238.4,6.96,1.338,11.55,104.1003,9.77,10.7,20.97,0,110,13.4,10.56,200.4
"2010-11-05 00:44:30",308550,1.833,233.2,4.451,0.832,10.35,104.1003,9.77,10.79,20.95,0,110,13.4,10.56,195.2
"2010-11-05 00:45:00",308551,2.152,233.3,5.782,1.15,10.5,104.1003,9.77,10.63,20.23,0,110,13.4,10.56,195.3
"2010-11-05 00:45:30",308552,1.517,231.2,0.696,0.004,9.31,104.1003,9.77,10.62,20.19,0,110,13.44,10.56,193.2
"2010-11-05 00:46:00",308553,1.557,232.6,2.47,0.478,9.83,104.1006,9.77,10.61,20.17,0,110,13.4,10.56,194.6
"2010-11-05 00:46:30",308554,1.683,233,3.477,0.704,10.55,104.1003,9.77,10.74,20.19,0,110,13.4,10.56,195.0
"2010-11-05 00:47:00",308555,2.98,237.4,7.501,1.273,12.73,104.1006,9.77,10.79,19.95,0,110,13.4,10.56,199.4
"2010-11-05 00:47:30",308556,2.712,234.2,6.725,1.32,12.18,104.1006,9.77,10.77,19.79,0,110,13.4,10.56,196.2
"2010-11-05 00:48:00",308557,1.927,230.2,4.447,0.966,10.65,104.1015,9.77,10.79,20.02,0,110,13.4,10.56,192.2
"2010-11-05 00:48:30",308558,2.36,229.9,5.317,1.2,10.46,104.1024,9.78,10.67,19.56,0,110,13.4,10.56,191.9
"2010-11-05 00:49:00",308559,2.375,230.6,6.216,1.204,11.25,104.1056,9.78,10.8,19.8,0,110,13.4,10.57,192.6
"2010-11-05 00:49:30",308560,2.228,229,4.597,0.99,10.17,104.1085,9.79,10.68,19.53,0,110,13.4,10.58,191.0
"2010-11-05 00:50:00",308561,1.737,227.5,0.414,0.033,9.52,104.1094,9.79,10.67,19.27,0,110,13.44,10.58,189.5
"2010-11-05 00:50:30",308562,1.718,227.8,0.551,0,9.61,104.1121,9.8,10.65,19.19,0,110,13.44,10.59,189.8
"2010-11-05 00:51:00",308563,2.502,231.9,6.042,1.211,11.12,104.1124,9.8,10.66,19.17,0,110,13.41,10.59,193.9
"2010-11-05 00:51:30",308564,2.972,235.7,6.865,1.327,12.71,104.115,9.81,10.87,19.52,0,110,13.41,10.59,197.7
"2010-11-05 00:52:00",308565,2.67,235.6,6.353,1.251,12.15,104.1179,9.82,10.84,19.58,0,110,13.41,10.60,197.6
"2010-11-05 00:52:30",308566,1.748,230.9,0.715,0.037,9.74,104.1203,9.82,10.66,19.37,0,110,13.44,10.61,192.9
"2010-11-05 00:53:00",308567,2.824,236.8,6.736,1.323,11.36,104.1229,9.83,10.8,19.5,0,110,13.4,10.61,198.8
"2010-11-05 00:53:30",308568,1.638,230.5,0.776,0.016,9.52,104.1224,9.83,10.71,19.42,0,110,13.44,10.61,192.5
"2010-11-05 00:54:00",308569,2.743,235.9,6.899,1.305,11.81,104.1265,9.84,10.77,19.41,0,110,13.4,10.62,197.9
"2010-11-05 00:54:30",308570,1.647,230.8,4.259,0.659,10.34,104.1271,9.84,10.8,19.43,0,110,13.4,10.63,192.8
"2010-11-05 00:55:00",308571,1.447,226.7,0.555,0.012,9.55,104.1318,9.85,10.64,19.25,0,110,13.44,10.64,188.7
"2010-11-05 00:55:30",308572,1.525,226.2,0.332,0.053,9.84,104.133,9.85,10.64,19.32,0,110,13.44,10.64,188.2
"2010-11-05 00:56:00",308573,2.671,232.5,6.845,1.324,12.37,104.1253,9.83,10.84,19.72,0,110,13.4,10.62,194.5
"2010-11-05 00:56:30",308574,3.185,236.1,6.527,1.28,13.15,104.1225,9.83,10.83,19.82,0,110,13.4,10.61,198.1
"2010-11-05 00:57:00",308575,1.838,231.2,4.069,0.664,10.47,104.1175,9.81,10.74,19.69,0,110,13.4,10.60,193.2
"2010-11-05 00:57:30",308576,1.609,231.6,0.925,0.031,9.34,104.1071,9.79,10.63,19.51,0,110,13.44,10.57,193.6
"2010-11-05 00:58:00",308577,2.674,236.2,6.836,1.321,11.41,104.1034,9.78,10.79,19.59,0,110,13.4,10.56,198.2
"2010-11-05 00:58:30",308578,2.097,232.3,4.839,0.997,10.24,104.1017,9.77,10.66,19.48,0,110,13.41,10.56,194.3
"2010-11-05 00:59:00",308579,2.031,231,4.361,0.928,9.87,104.1017,9.77,10.7,19.48,0,110,13.41,10.56,193.0
"2010-11-05 00:59:30",308580,2.892,234.3,7.29,1.329,11.97,104.1014,9.77,10.73,19.44,0,110,13.41,10.56,196.3
"2010-11-05 01:00:00",308581,1.654,227.7,0.042,0.004,9.76,104.1017,9.77,10.62,19.35,0,110,13.45,10.56,189.7
"2010-11-05 01:00:30",308582,2.353,231.4,5.946,1.123,11.44,104.1017,9.77,10.68,19.38,0,110,13.41,10.56,193.4
"2010-11-05 01:01:00",308583,3.595,236.5,6.178,1.132,13.95,104.102,9.77,10.84,19.48,0,110,13.41,10.56,198.5
"2010-11-05 01:01:30",308584,2.381,231.8,6.272,1.215,11.5,104.1017,9.77,10.76,19.34,0,110,13.41,10.56,193.8
"2010-11-05 01:02:00",308585,1.517,227.1,0.563,0.004,9.64,104.1017,9.77,10.62,19.19,0,110,13.45,10.56,189.1
"2010-11-05 01:02:30",308586,2.504,232.9,6.74,1.248,11.34,104.1017,9.77,10.78,19.36,0,110,13.41,10.56,194.9
"2010-11-05 01:03:00",308587,1.812,229,4.785,0.924,10.36,104.1017,9.77,10.76,19.41,0,110,13.41,10.56,191.0
"2010-11-05 01:03:30",308588,1.488,225.5,0.694,0.036,9.65,104.1017,9.77,10.64,19.37,0,110,13.45,10.56,187.5
"2010-11-05 01:04:00",308589,2.745,232.2,6.926,1.312,12.12,104.1017,9.77,10.78,19.4,0,110,13.41,10.56,194.2
"2010-11-05 01:04:30",308590,1.395,226.3,0.363,0.033,9.89,104.102,9.77,10.71,19.23,0,110,13.45,10.56,188.3
"2010-11-05 01:05:00",308591,1.414,224.3,0.831,0.033,9.88,104.1017,9.77,10.63,18.94,0,110,13.45,10.56,186.3
"2010-11-05 01:05:30",308592,2.191,224.6,5.848,1.167,11.91,104.1048,9.78,10.79,19.21,0,109.9,13.41,10.57,186.6
"2010-11-05 01:06:00",308593,3.098,228.9,6.347,1.224,13.34,104.1068,9.79,10.81,19.23,0,110,13.41,10.57,190.9
"2010-11-05 01:06:30",308594,2.409,225.6,6.628,1.27,11.95,104.1096,9.79,10.8,19.21,0,110,13.41,10.58,187.6
"2010-11-05 01:07:00",308595,1.485,221.7,0.345,0.036,9.39,104.1082,9.79,10.66,19.03,0,110,13.45,10.58,183.7
"2010-11-05 01:07:30",308596,1.69,223.2,2.501,0.673,9.63,104.1119,9.8,10.73,19.01,0,110,13.41,10.59,185.2
"2010-11-05 01:08:00",308597,2.59,228.3,6.833,1.322,11.43,104.1096,9.79,10.7,18.9,0,110,13.41,10.58,190.3
"2010-11-05 01:08:30",308598,2.131,224.3,5.561,1.126,10.71,104.1054,9.78,10.66,18.82,0,110,13.42,10.57,186.3
"2010-11-05 01:09:00",308599,1.628,220,1.482,0.531,10,104.104,9.78,10.77,18.94,0,110,13.42,10.57,182.0
"2010-11-05 01:09:30",308600,2.811,225.5,6.658,1.296,12.57,104.1017,9.77,10.7,19,0,110,13.42,10.56,187.5
"2010-11-05 01:10:00",308601,1.516,219.5,0.754,0.027,10.08,104.1017,9.77,10.65,19.06,0,110,13.45,10.56,181.5
"2010-11-05 01:10:30",308602,2.92,226.5,6.507,1.363,12.82,104.1017,9.77,10.86,19.27,0,110,13.41,10.56,188.5
"2010-11-05 01:11:00",308603,2.951,225.2,6.892,1.315,12.58,104.1017,9.77,10.89,19.53,0,110,13.41,10.56,187.2
"2010-11-05 01:11:30",308604,2.451,222.5,5.228,1.182,10.7,104.1017,9.77,10.65,19.28,0,110,13.42,10.56,184.5
"2010-11-05 01:12:00",308605,1.727,219.4,0.53,0.013,9.5,104.1017,9.77,10.69,19.14,0,110,13.45,10.56,181.4
"2010-11-05 01:12:30",308606,2.807,225.7,6.446,1.275,11.66,104.1017,9.77,10.74,19.17,0,110,13.42,10.56,187.7
"2010-11-05 01:13:00",308607,2.468,223.7,6.497,1.193,11.53,104.1017,9.77,10.8,19.21,0,110,13.42,10.56,185.7
"2010-11-05 01:13:30",308608,1.727,218.5,0.461,0,9.91,104.1017,9.77,10.76,19.22,0,110,13.45,10.56,180.5
"2010-11-05 01:14:00",308609,3.058,225.7,6.825,1.331,12.5,104.102,9.77,10.73,19.18,0,110,13.42,10.56,187.7
"2010-11-05 01:14:30",308610,1.796,218.2,0.481,0.374,10.15,104.1023,9.78,10.73,19.23,0,110,13.42,10.56,180.2
"2010-11-05 01:15:00",308611,2.744,223.5,6.41,1.269,11.94,104.1026,9.78,10.81,19.29,0,110,13.42,10.56,185.5
"2010-11-05 01:15:30",308612,2.922,225.5,7.068,1.326,12.01,104.102,9.77,10.75,19.35,0,110,13.42,10.56,187.5
"2010-11-05 01:16:00",308613,1.845,220.6,1.324,0.236,9.79,104.1017,9.77,10.75,19.45,0,110,13.42,10.56,182.6
"2010-11-05 01:16:30",308614,2.462,223.8,5.74,1.046,10.51,104.1026,9.78,10.71,19.42,0,110,13.42,10.56,185.8
"2010-11-05 01:17:00",308615,2.413,223.7,5.577,1.027,10.74,104.1029,9.78,10.79,19.57,0,110,13.42,10.56,185.7
"2010-11-05 01:17:30",308616,2.5,220.9,5.41,1.099,10.48,104.1023,9.78,10.74,19.46,0,110,13.42,10.56,182.9
"2010-11-05 01:18:00",308617,2.091,218.6,4.395,0.681,10.65,104.1026,9.78,10.7,19.42,0,110,13.42,10.56,180.6
"2010-11-05 01:18:30",308618,2.58,219,5.927,1.182,11.02,104.1038,9.78,10.69,19.25,0,110,13.43,10.57,181.0
"2010-11-05 01:19:00",308619,3.535,226.3,6.472,1.284,13.75,104.104,9.78,10.87,19.05,0,110,13.43,10.57,188.3
"2010-11-05 01:19:30",308620,2.439,220.5,4.529,1.02,10.74,104.1026,9.78,10.77,19,0,110,13.43,10.56,182.5
"2010-11-05 01:20:00",308621,3.249,223.7,7.025,1.325,11.6,104.1043,9.78,10.64,18.93,0,110,13.43,10.57,185.7
"2010-11-05 01:20:30",308622,2.279,220.2,5.351,0.894,10.63,104.1049,9.78,10.78,19.22,0,110,13.43,10.57,182.2
"2010-11-05 01:21:00",308623,2.807,221.5,6.359,1.239,10.57,104.1046,9.78,10.65,19.29,0,110,13.43,10.57,183.5
"2010-11-05 01:21:30",308624,2.075,216.7,0.04,0.488,9.46,104.1055,9.78,10.63,19.81,0,110,13.43,10.57,178.7
"2010-11-05 01:22:00",308625,2.975,221.2,6.454,1.302,11.44,104.1025,9.78,10.78,20.09,0,110,13.43,10.56,183.2
"2010-11-05 01:22:30",308626,1.983,213.9,0.553,0.002,9.89,104.0954,9.76,10.62,20.06,0,110,13.46,10.54,175.9
"2010-11-05 01:23:00",308627,1.983,212.9,0.285,0.003,10.22,104.0886,9.74,10.73,20.11,0,110,13.47,10.53,174.9
"2010-11-05 01:23:30",308628,3.915,221.9,6.076,1.176,14,104.0898,9.74,10.81,20.09,0,110,13.43,10.53,183.9
"2010-11-05 01:24:00",308629,3.701,219.9,6.647,1.248,13.43,104.0879,9.74,10.82,19.82,0,110,13.43,10.52,181.9
"2010-11-05 01:24:30",308630,2.361,211.5,2.651,0.687,10.05,104.0928,9.75,10.61,19.3,0,110,13.43,10.54,173.5
"2010-11-05 01:25:00",308631,3.319,216.6,6.414,1.288,12.1,104.0942,9.75,10.78,19.41,0,110,13.43,10.54,178.6
"2010-11-05 01:25:30",308632,2.165,209.5,0.427,0.482,9.69,104.091,9.75,10.63,19.31,0,110,13.43,10.53,171.5
"2010-11-05 01:26:00",308633,2.753,213.5,6.051,1.188,11.26,104.0937,9.75,10.74,19.21,0,110,13.43,10.54,175.5
"2010-11-05 01:26:30",308634,2.436,211,4.83,1.005,10.55,104.0945,9.76,10.73,19.03,0,110,13.43,10.54,173.0
"2010-11-05 01:27:00",308635,2.532,211.4,5.532,1.077,10.79,104.0968,9.76,10.66,18.98,0,110,13.42,10.55,173.4
"2010-11-05 01:27:30",308636,2.043,209.2,2.464,0.475,10.2,104.1007,9.77,10.69,18.83,0,110,13.43,10.56,171.2
"2010-11-05 01:28:00",308637,3.887,217.6,6.096,1.128,14.26,104.1038,9.78,10.84,18.71,0,110,13.42,10.57,179.6
"2010-11-05 01:28:30",308638,2.906,211.3,6.565,1.23,12.12,104.1046,9.78,10.79,18.61,0,110,13.42,10.57,173.3
"2010-11-05 01:29:00",308639,1.931,204.4,0.651,0.005,9.93,104.1084,9.79,10.63,18.44,0,110,13.45,10.58,166.4
"2010-11-05 01:29:30",308640,1.965,202.1,0.703,0.036,9.69,104.1081,9.79,10.71,18.71,0,110,13.45,10.58,164.1
"2010-11-05 01:30:00",308641,3.269,207.8,6.463,1.253,12.09,104.1118,9.8,10.72,18.81,0,110,13.42,10.59,169.8
"2010-11-05 01:30:30",308642,2.789,204.3,5.819,1.196,10.81,104.1152,9.81,10.65,18.76,0,110,13.42,10.59,166.3
"2010-11-05 01:31:00",308643,3.022,205.6,6.182,1.222,11.62,104.1153,9.81,10.78,18.93,0,110,13.42,10.60,167.6
"2010-11-05 01:31:30",308644,2.007,199.5,0.512,0.022,9.88,104.1145,9.81,10.63,18.77,0,110,13.46,10.59,161.5
"2010-11-05 01:32:00",308645,2.01,199.1,0.563,0.025,10.17,104.109,9.79,10.72,18.86,0,110,13.47,10.58,161.1
"2010-11-05 01:32:30",308646,3.947,207.9,6.112,1.178,13.7,104.1085,9.79,10.89,19.15,0,110,13.43,10.58,169.9
"2010-11-05 01:33:00",308647,3.675,205.1,6.514,1.276,13.52,104.106,9.79,10.83,19.14,0,110,13.43,10.57,167.1
"2010-11-05 01:33:30",308648,2.343,197.1,4.399,0.9,10.16,104.1126,9.8,10.62,18.81,0,110,13.43,10.59,159.1
"2010-11-05 01:34:00",308649,1.958,195,0.525,0.03,9.56,104.1095,9.79,10.62,18.7,0,110,13.47,10.58,157.0
"2010-11-05 01:34:30",308650,3.238,201.8,6.716,1.311,11.63,104.1092,9.79,10.68,18.78,0,110,13.43,10.58,163.8
"2010-11-05 01:35:00",308651,2.706,199.4,6.006,1.181,11.36,104.1092,9.79,10.83,19.02,0,110,13.43,10.58,161.4
"2010-11-05 01:35:30",308652,2.985,201.9,6.726,1.3,11.95,104.1069,9.79,10.71,18.82,0,110,13.43,10.57,163.9
"2010-11-05 01:36:00",308653,1.939,196.7,0.034,0.019,9.84,104.1092,9.79,10.71,18.77,0,110,13.47,10.58,158.7
"2010-11-05 01:36:30",308654,2.172,197.1,2.482,0.666,9.87,104.1087,9.79,10.69,18.65,0,110,13.43,10.58,159.1
"2010-11-05 01:37:00",308655,3.063,201.4,6.471,1.299,11.81,104.1067,9.79,10.73,18.59,0,110,13.43,10.57,163.4
"2010-11-05 01:37:30",308656,3.318,203.2,6.732,1.284,12.32,104.1056,9.78,10.69,18.48,0,110,13.43,10.57,165.2
"2010-11-05 01:38:00",308657,2.773,202.3,6.856,1.225,11.69,104.1064,9.79,10.8,18.45,0,110,13.43,10.57,164.3
"2010-11-05 01:38:30",308658,1.941,199,0.507,0.025,9.77,104.1084,9.79,10.63,18.22,0,110,13.47,10.58,161.0
"2010-11-05 01:39:00",308659,2.64,204.2,6.117,1.175,10.93,104.1107,9.8,10.62,18.1,0,110,13.43,10.58,166.2
"2010-11-05 01:39:30",308660,2.628,204.9,6.172,1.111,11.17,104.1147,9.81,10.74,18.04,0,110,13.43,10.59,166.9
"2010-11-05 01:40:00",308661,3.782,211,6.294,1.219,13.35,104.1094,9.79,10.78,18.11,0,110,13.43,10.58,173.0
"2010-11-05 01:40:30",308662,1.997,202.3,0.515,0.007,9.95,104.1153,9.81,10.7,18.55,0,110,13.47,10.60,164.3
"2010-11-05 01:41:00",308663,3.146,208.9,6.442,1.311,11.74,104.1076,9.79,10.67,18.7,0,110,13.43,10.58,170.9
"2010-11-05 01:41:30",308664,2.965,209.4,7.017,1.277,11.62,104.0992,9.77,10.77,18.85,0,110,13.43,10.55,171.4
"2010-11-05 01:42:00",308665,2.746,207.8,5.846,1.19,10.52,104.0907,9.75,10.6,18.64,0,110,13.43,10.53,169.8
"2010-11-05 01:42:30",308666,3.12,211.4,6.687,1.301,11.61,104.089,9.74,10.77,19.07,0,110,13.43,10.53,173.4
"2010-11-05 01:43:00",308667,2.356,207.8,2.582,0.757,9.67,104.0916,9.75,10.6,18.86,0,110,13.43,10.53,169.8
"2010-11-05 01:43:30",308668,2.206,207.3,0.337,0.025,9.62,104.0907,9.75,10.6,17.27,0,110,13.47,10.53,169.3
"2010-11-05 01:44:00",308669,3.2,212.5,6.569,1.259,11.92,104.0893,9.74,10.82,16.34,0,110,13.43,10.53,174.5
"2010-11-05 01:44:30",308670,4.011,217.5,6.856,1.213,13,104.0907,9.75,10.77,15.5,0,110,13.43,10.53,179.5
"2010-11-05 01:45:00",308671,3.453,215.6,6.872,1.311,12.08,104.0922,9.75,10.65,15.26,0,110,13.43,10.54,177.6
"2010-11-05 01:45:30",308672,3.308,215.7,6.811,1.275,11.81,104.0898,9.74,10.74,14.83,0,110,13.43,10.53,177.7
"2010-11-05 01:46:00",308673,2.149,210.8,0.646,0.021,9.5,104.0913,9.75,10.59,15.34,0,110,13.43,10.53,172.8
"2010-11-05 01:46:30",308674,2.192,210,0.481,0.032,9.64,104.0922,9.75,10.67,15.26,0,110,13.46,10.54,172.0
"2010-11-05 01:47:00",308675,3.363,215.8,6.893,1.271,11.7,104.0922,9.75,10.66,15.03,0,110,13.43,10.54,177.8
"2010-11-05 01:47:30",308676,2.203,210.3,0.534,0.018,9.8,104.0934,9.75,10.65,14.94,0,110,13.47,10.54,172.3
"2010-11-05 01:48:00",308677,2.218,209.5,0.472,0.022,9.8,104.0931,9.75,10.58,14.85,0,110,13.47,10.54,171.5
"2010-11-05 01:48:30",308678,3.567,215.3,6.396,1.325,12.44,104.0922,9.75,10.79,14.97,0,110,13.43,10.54,177.3
"2010-11-05 01:49:00",308679,4.111,218.6,6.085,1.26,13.7,104.0925,9.75,10.86,15.42,0,110,13.43,10.54,180.6
"2010-11-05 01:49:30",308680,3.713,215.5,7.023,1.292,12.86,104.0937,9.75,10.75,14.98,0,110,13.43,10.54,177.5
"2010-11-05 01:50:00",308681,2.411,208.2,0.523,0.016,9.56,104.0931,9.75,10.67,14.4,0,110,13.47,10.54,170.2
"2010-11-05 01:50:30",308682,2.413,207.6,0.364,0.005,9.24,104.0957,9.76,10.58,15.35,0,110,13.47,10.54,169.6